AAL1852 TJSJ-KCLT

Flight info

Callsign AAL1852
Flight time N/A
Altitude 34000
Route ACONY3 PALDE DCT DONQU DCT LETON/M078F340 L451 JAINS/N0455F340 Y436 PITRW STOCR4
Aircraft A321/M-SDE3FGHIRWY/LB1

Departure

Time 2026-04-28 18:11
Airport Luis Munoz Marin International Airport (TJSJ)

Arrival

Time N/A
Airport Charlotte Douglas International Airport (KCLT)
Time Latitude Longitude Altitude Speed Heading
2026-04-28 17:44 18.43826 -66.00158 -26 ft 0 kts 326°
2026-04-28 18:00 18.43813 -66.00149 -37 ft 4 kts 322°
2026-04-28 18:00 18.43795 -66.00135 -38 ft 3 kts 327°
2026-04-28 18:00 18.43779 -66.00126 -43 ft 4 kts 31°
2026-04-28 18:01 18.43775 -66.00128 -42 ft 3 kts 66°
2026-04-28 18:01 18.43782 -66.00113 -49 ft 4 kts 58°
2026-04-28 18:01 18.43785 -66.00105 -44 ft 2 kts 69°
2026-04-28 18:01 18.43785 -66.00104 -43 ft 0 kts 69°
2026-04-28 18:04 18.43786 -66.00102 -43 ft 2 kts 69°
2026-04-28 18:04 18.43795 -66.00077 -37 ft 5 kts 69°
2026-04-28 18:05 18.43788 -66.00031 -28 ft 8 kts 128°
2026-04-28 18:05 18.43755 -66.00009 -27 ft 9 kts 152°
2026-04-28 18:05 18.43643 -66.00003 -34 ft 14 kts 185°
2026-04-28 18:05 18.43563 -66.00043 -31 ft 14 kts 249°
2026-04-28 18:06 18.43560 -66.00157 -36 ft 17 kts 271°
2026-04-28 18:06 18.43532 -66.00226 -27 ft 8 kts 192°
2026-04-28 18:06 18.43476 -66.00247 -36 ft 11 kts 231°
2026-04-28 18:06 18.43467 -66.00325 -31 ft 10 kts 272°
2026-04-28 18:07 18.43467 -66.00392 -30 ft 8 kts 271°
2026-04-28 18:07 18.43469 -66.00448 -29 ft 8 kts 271°
2026-04-28 18:07 18.43469 -66.00510 -28 ft 10 kts 270°
2026-04-28 18:07 18.43469 -66.00590 -28 ft 12 kts 270°
2026-04-28 18:08 18.43469 -66.00691 -28 ft 15 kts 270°
2026-04-28 18:08 18.43469 -66.00807 -28 ft 16 kts 270°
2026-04-28 18:08 18.43470 -66.00935 -41 ft 18 kts 270°
2026-04-28 18:08 18.43468 -66.01073 -29 ft 19 kts 271°
2026-04-28 18:09 18.43465 -66.01221 -31 ft 20 kts 270°
2026-04-28 18:09 18.43466 -66.01364 -31 ft 18 kts 269°
2026-04-28 18:09 18.43513 -66.01434 -37 ft 12 kts 358°
2026-04-28 18:09 18.43606 -66.01436 -44 ft 14 kts 359°
2026-04-28 18:10 18.43711 -66.01437 -45 ft 16 kts
2026-04-28 18:10 18.43764 -66.01467 -58 ft 7 kts 245°
2026-04-28 18:10 18.43756 -66.01522 -39 ft 9 kts 294°
2026-04-28 18:10 18.43810 -66.01571 -45 ft 11 kts 328°
2026-04-28 18:11 18.43868 -66.01509 -53 ft 33 kts 66°
2026-04-28 18:11 18.44076 -66.00998 -43 ft 115 kts 67°
2026-04-28 18:11 18.44475 -66.00005 -24 ft 176 kts 68°
2026-04-28 18:11 18.44961 -65.98799 787 ft 179 kts 64°
2026-04-28 18:12 18.45818 -65.97899 1601 ft 177 kts 25°
2026-04-28 18:12 18.47083 -65.97723 1788 ft 196 kts 347°
2026-04-28 18:12 18.48435 -65.98235 1975 ft 217 kts 336°
2026-04-28 18:12 18.49906 -65.98896 2166 ft 242 kts 334°
2026-04-28 18:13 18.51295 -65.99997 2556 ft 258 kts 312°
2026-04-28 18:13 18.52528 -66.01406 3242 ft 263 kts 312°
2026-04-28 18:13 18.53774 -66.02837 3971 ft 266 kts 311°
2026-04-28 18:13 18.55032 -66.04285 4703 ft 269 kts 311°
2026-04-28 18:14 18.56302 -66.05749 5420 ft 272 kts 312°
2026-04-28 18:14 18.57591 -66.07229 6140 ft 275 kts 312°
2026-04-28 18:14 18.58892 -66.08722 6843 ft 278 kts 312°
2026-04-28 18:14 18.60207 -66.10231 7532 ft 281 kts 312°
2026-04-28 18:15 18.61534 -66.11756 8202 ft 284 kts 312°
2026-04-28 18:15 18.62874 -66.13297 8878 ft 287 kts 312°
2026-04-28 18:15 18.64229 -66.14855 9551 ft 289 kts 312°
2026-04-28 18:15 18.65597 -66.16428 10187 ft 294 kts 312°
2026-04-28 18:16 18.67026 -66.18072 10375 ft 315 kts 312°
2026-04-28 18:16 18.68557 -66.19834 10503 ft 336 kts 312°
2026-04-28 18:16 18.70181 -66.21705 10705 ft 353 kts 312°
2026-04-28 18:16 18.71858 -66.23635 11219 ft 359 kts 312°
2026-04-28 18:17 18.73554 -66.25589 11809 ft 363 kts 312°
2026-04-28 18:17 18.75265 -66.27565 12404 ft 366 kts 312°
2026-04-28 18:17 18.76991 -66.29559 13001 ft 369 kts 312°
2026-04-28 18:17 18.78731 -66.31568 13593 ft 373 kts 312°
2026-04-28 18:18 18.80489 -66.33595 14169 ft 376 kts 312°
2026-04-28 18:18 18.82262 -66.35636 14739 ft 379 kts 312°
2026-04-28 18:18 18.84050 -66.37697 15300 ft 382 kts 312°
2026-04-28 18:18 18.85243 -66.39072 15663 ft 384 kts 312°
2026-04-28 18:19 18.87669 -66.41871 16401 ft 388 kts 312°
2026-04-28 18:19 18.89497 -66.43983 16937 ft 391 kts 312°
2026-04-28 18:19 18.91340 -66.46117 17463 ft 394 kts 312°
2026-04-28 18:19 18.93200 -66.48260 17968 ft 398 kts 313°
2026-04-28 18:20 18.95142 -66.50357 18475 ft 401 kts 315°